COSMOS 2499 DEB, 55732

Orbit data source: Space-Track

COSMOS 2499 DEB, 55732 is space debris in LEO originally from a launch on Fri, 23 May 2014 UTC launched from the Plesetsk Missile And Space Complex (PKMTR). Debris objects in space refer to the collection of defunct objects orbiting the Earth. Examples of debris include non-operational satellites, rocket bodies, and fragments generated from explosions, collisions, or faulty payload assembly.

Loading next visibility...
Identifier
55732, 2014-028AU
Orbit
LEO
Country
Flag of CISCIS
Related business
Manufacturer
TsNIIKhM
Mission
Spacecraft
Bus & Motor
Unknown
Mass
Unknown
Launch date (UTC)
2014-05-23 (12 years ago)
Launch vehicle
Unknown
Launch site
Plesetsk Missile And Space Complex (PKMTR)
Object type
Payload
Rocket body
Debris
Shape & HBR
Unknown shape, 0.1 m
Radar Cross Section
Small (<0.1 m²)

Expand to show TLE details & history
Last TLE update: 2 days ago

TLE from 2 days ago
0 COSMOS 2499 DEB
1 55732U 14028AU  26171.45289016  .00000940  00000-0  34340-2 0  9998
2 55732  82.3230 238.3708 0133477  19.4062 341.2057 12.89697631 96559
Epoch: 2026-06-20T10:52Z
TLE epoch observation values (Epoch: 2026-06-20T10:52:09.709Z)
Latitude
-0.00006°
Longitude
166.66304°
Altitude
1,208.559 km
Speed
7.295 km/s
True Right ascension
15h 53m 28s
True Declination
0° 00' 00"
Sunlit
Object was in full shadow at epoch
Visualization orbit readout
Latitude
Unknown
Longitude
Unknown
Altitude
Unknown
Speed
Unknown
Apparent Right ascension
Unknown
Apparent Declination
Unknown
Sunlit
N/A
Visualization observer readout
Local Sidereal Time
21:39:30
Azimuth
Unknown
Elevation
Unknown
Doppler factor
Unknown
Orbital elements
Apogee altitude
1,402.501 km
Perigee altitude
1,197.53 km
Semi-major axis
7,678.152 km
Eccentricity
0.01335
Inclination
82.323°
RAAN
238.3708°
Arg. of periapsis
19.4062°
True anomaly
340.70503°
Mean anomaly
341.2057°
Eccentric anomaly
340.95616°
Mean motion
3.22595 °/min
Orbital period
111.59 mins
BSTAR
0.003434
Loading maneuver chart data...
Computing Atmospheric mass density...
Loading historical data...
Loading historical data...
Loading historical data...
Loading historical data...
Loading historical data...
Loading historical data...
Loading historical data...

Documentation

Showing up to 5 results
|